TimeEST,TemperatureF,Dew PointF,Humidity,Sea Level PressureIn,VisibilityMPH,Wind Direction,Wind SpeedMPH,Gust SpeedMPH,PrecipitationIn,Events,Conditions,WindDirDegrees,DateUTC
12:15 AM,44.6,41.9,90,29.99,7.0,SSW,11.5,-,N/A,,Overcast,210,2011-11-25 05:15:00
12:34 AM,44.2,41.9,91,29.99,7.0,SSW,9.2,-,N/A,,Overcast,200,2011-11-25 05:34:00
12:55 AM,44.1,41.9,92,29.98,7.0,SSW,9.2,19.6,N/A,,Overcast,210,2011-11-25 05:55:00
1:15 AM,43.7,41.9,93,29.97,7.0,SSW,9.2,-,N/A,,Overcast,210,2011-11-25 06:15:00
2:15 AM,43.7,41.9,93,29.96,7.0,SSW,10.4,-,N/A,,Overcast,200,2011-11-25 07:15:00
2:34 AM,43.7,42.3,95,29.96,7.0,SSW,8.1,-,N/A,,Overcast,210,2011-11-25 07:34:00
2:54 AM,43.5,42.4,96,29.96,7.0,SW,10.4,18.4,N/A,,Overcast,220,2011-11-25 07:54:00
3:15 AM,43.0,42.1,97,29.96,7.0,SSW,4.6,16.1,N/A,,Mostly Cloudy,210,2011-11-25 08:15:00
3:34 AM,43.2,42.3,97,29.96,7.0,SSW,8.1,-,N/A,,Scattered Clouds,200,2011-11-25 08:34:00
3:54 AM,42.8,41.9,97,29.95,7.0,South,5.8,-,N/A,,Clear,190,2011-11-25 08:54:00
4:15 AM,42.8,41.9,97,29.94,7.0,SSW,6.9,-,N/A,,Clear,200,2011-11-25 09:15:00
4:34 AM,42.4,41.7,97,29.94,7.0,South,8.1,-,N/A,,Clear,190,2011-11-25 09:34:00
5:34 AM,39.4,39.4,100,29.94,5.0,SSE,5.8,-,N/A,,Scattered Clouds,160,2011-11-25 10:34:00
5:54 AM,39.7,39.7,100,29.94,4.0,SE,4.6,-,N/A,,Mostly Cloudy,140,2011-11-25 10:54:00
6:15 AM,39.6,39.6,100,29.94,4.0,SSE,4.6,-,N/A,,Overcast,160,2011-11-25 11:15:00
6:34 AM,39.0,39.0,100,29.93,4.0,SSE,4.6,-,N/A,,Mostly Cloudy,150,2011-11-25 11:34:00
6:54 AM,38.3,38.3,100,29.92,4.0,South,6.9,-,N/A,,Scattered Clouds,170,2011-11-25 11:54:00
7:14 AM,38.7,38.7,100,29.92,5.0,South,5.8,-,N/A,,Scattered Clouds,170,2011-11-25 12:14:00
7:34 AM,37.9,37.9,100,29.92,5.0,South,6.9,-,N/A,,Scattered Clouds,170,2011-11-25 12:34:00
7:55 AM,38.7,38.7,100,29.93,4.0,SSE,4.6,-,N/A,,Clear,150,2011-11-25 12:55:00
8:15 AM,38.7,38.7,100,29.92,4.0,SSE,6.9,-,N/A,,Clear,150,2011-11-25 13:15:00
8:55 AM,42.6,41.4,95,29.91,10.0,South,9.2,17.3,N/A,,Clear,180,2011-11-25 13:55:00
9:14 AM,44.2,41.7,91,29.90,10.0,SSW,9.2,-,N/A,,Clear,200,2011-11-25 14:14:00
9:34 AM,45.5,40.6,83,29.90,10.0,SSW,10.4,-,N/A,,Clear,210,2011-11-25 14:34:00
9:55 AM,46.6,41.0,81,29.91,10.0,SSW,12.7,24.2,N/A,,Clear,210,2011-11-25 14:55:00
10:14 AM,47.3,41.0,79,29.92,10.0,SSW,10.4,19.6,N/A,,Clear,210,2011-11-25 15:14:00
10:34 AM,48.4,41.5,77,29.92,10.0,SW,9.2,17.3,N/A,,Clear,220,2011-11-25 15:34:00
10:55 AM,49.6,42.1,75,29.91,10.0,SW,11.5,18.4,N/A,,Clear,220,2011-11-25 15:55:00
11:14 AM,50.7,42.3,73,29.89,10.0,SSW,11.5,19.6,N/A,,Clear,210,2011-11-25 16:14:00
11:54 AM,52.2,41.4,67,29.89,10.0,SW,12.7,25.3,N/A,,Clear,220,2011-11-25 16:54:00
12:14 PM,53.2,42.1,66,29.89,10.0,SW,13.8,19.6,N/A,,Clear,230,2011-11-25 17:14:00
12:35 PM,52.9,41.9,66,29.88,10.0,SSW,17.3,21.9,N/A,,Clear,200,2011-11-25 17:35:00
12:55 PM,53.1,42.1,66,29.87,10.0,SSW,16.1,24.2,N/A,,Clear,210,2011-11-25 17:55:00
1:35 PM,53.6,41.9,65,29.86,10.0,WSW,11.5,19.6,N/A,,Clear,240,2011-11-25 18:35:00
1:54 PM,53.1,41.9,66,29.86,10.0,SSW,11.5,20.7,N/A,,Clear,200,2011-11-25 18:54:00
2:35 PM,52.7,41.7,66,29.85,10.0,SW,15.0,24.2,N/A,,Clear,230,2011-11-25 19:35:00
3:14 PM,51.4,41.4,68,29.85,10.0,SSW,12.7,19.6,N/A,,Clear,210,2011-11-25 20:14:00
3:35 PM,51.8,41.4,68,29.85,10.0,SW,10.4,18.4,N/A,,Clear,230,2011-11-25 20:35:00
3:54 PM,50.4,41.2,71,29.85,10.0,SSW,15.0,23.0,N/A,,Clear,200,2011-11-25 20:54:00
4:14 PM,50.0,41.2,72,29.86,10.0,SSW,13.8,21.9,N/A,,Clear,210,2011-11-25 21:14:00
4:35 PM,49.3,41.0,73,29.86,10.0,SSW,10.4,20.7,N/A,,Clear,210,2011-11-25 21:35:00
4:54 PM,48.6,41.0,75,29.85,10.0,SSW,5.8,-,N/A,,Clear,210,2011-11-25 21:54:00
5:14 PM,48.7,40.8,74,29.86,10.0,SSW,5.8,-,N/A,,Clear,210,2011-11-25 22:14:00
5:35 PM,48.4,40.8,75,29.86,10.0,SSW,3.5,-,N/A,,Clear,200,2011-11-25 22:35:00
5:54 PM,47.8,40.5,76,29.86,10.0,Calm,Calm,-,N/A,,Clear,0,2011-11-25 22:54:00
6:14 PM,47.7,40.3,76,29.88,10.0,Calm,Calm,-,N/A,,Clear,0,2011-11-25 23:14:00
6:35 PM,45.9,39.7,79,29.89,10.0,Calm,Calm,-,N/A,,Clear,0,2011-11-25 23:35:00
6:54 PM,44.6,39.6,82,29.89,10.0,Calm,Calm,-,N/A,,Mostly Cloudy,0,2011-11-25 23:54:00
7:14 PM,43.7,39.6,85,29.89,10.0,Calm,Calm,-,N/A,,Mostly Cloudy,0,2011-11-26 00:14:00
7:35 PM,42.1,39.2,90,29.87,10.0,Calm,Calm,-,N/A,,Overcast,0,2011-11-26 00:35:00
7:54 PM,43.0,40.1,90,29.89,10.0,Calm,Calm,-,N/A,,Overcast,0,2011-11-26 00:54:00
8:35 PM,44.6,41.0,87,29.89,10.0,Calm,Calm,-,N/A,,Overcast,0,2011-11-26 01:35:00
8:55 PM,45.7,41.2,84,29.90,10.0,Calm,Calm,-,N/A,,Overcast,0,2011-11-26 01:55:00
9:15 PM,46.6,41.0,81,29.90,10.0,SE,3.5,-,N/A,,Overcast,140,2011-11-26 02:15:00
9:34 PM,46.8,41.0,80,29.90,10.0,SSE,3.5,-,N/A,,Overcast,150,2011-11-26 02:34:00
9:55 PM,47.1,41.0,79,29.91,10.0,SE,3.5,-,N/A,,Overcast,140,2011-11-26 02:55:00
10:14 PM,47.3,41.0,79,29.91,10.0,SE,3.5,-,N/A,,Overcast,140,2011-11-26 03:14:00
10:34 PM,46.9,41.2,80,29.91,10.0,Calm,Calm,-,N/A,,Overcast,0,2011-11-26 03:34:00
11:14 PM,47.5,41.9,81,29.91,10.0,Calm,Calm,-,N/A,,Overcast,0,2011-11-26 04:14:00
11:34 PM,47.5,42.4,83,29.92,10.0,Calm,Calm,-,N/A,,Overcast,0,2011-11-26 04:34:00
11:55 PM,47.8,42.8,83,29.92,10.0,Calm,Calm,-,N/A,,Overcast,0,2011-11-26 04:55:00